Theta_e
359 357 356 355 354 353 353 353 353 353 353 352 353 356 353 354 365 373 373 368 359 356 355 354 355 355 353 351 350 350 350 349 348 349 349 349 349 350 352 351 352 352 350 343 338 339 343 346 348 350 352 351 352 351 349 347 345 343 342 336 331 333 335 335 335 334 334 335 336 337 339 339 341 342
357 356 355 355 355 356 356 355 355 355 355 353 352 355 354 354 360 364 368 369 361 356 357 356 356 356 354 353 351 351 350 349 348 347 347 349 350 351 351 351 352 352 350 346 341 341 342 344 348 351 352 352 352 351 349 348 345 343 344 340 332 331 334 335 335 335 334 334 335 337 338 338 339 339
357 356 355 355 356 357 358 357 356 355 354 353 351 352 354 355 355 354 359 366 362 356 357 358 357 357 355 354 353 352 351 350 349 348 348 350 351 351 350 350 352 351 349 346 344 344 342 342 346 351 352 352 351 350 349 348 346 344 344 342 336 331 333 335 335 335 335 335 335 336 336 336 336 337
358 357 356 356 357 358 358 357 356 355 354 353 352 351 352 354 356 355 357 362 360 355 355 357 357 357 355 353 353 353 352 351 351 350 350 351 350 349 349 351 352 351 348 347 345 345 344 342 344 349 352 353 351 351 351 349 346 345 344 344 341 335 331 333 335 335 335 335 335 336 335 334 334 335
358 358 356 356 356 356 357 356 355 356 354 353 353 351 351 353 356 357 356 359 359 355 353 356 357 356 354 353 353 353 351 352 352 352 352 352 350 348 349 352 352 350 348 347 346 347 345 343 344 347 349 351 351 351 353 351 347 346 345 344 343 340 335 332 333 335 336 336 336 336 336 334 333 333
358 357 356 355 355 355 355 354 354 356 355 353 353 352 351 353 353 354 354 355 356 354 353 354 354 354 354 353 353 352 352 352 352 353 355 355 352 349 350 352 352 350 348 347 346 346 346 344 344 346 345 347 350 350 351 351 349 347 345 345 344 344 341 336 333 333 335 336 336 336 336 335 333 333
358 357 355 355 354 354 354 353 354 355 355 354 353 352 352 353 353 355 354 352 353 354 353 353 354 354 353 353 352 352 352 352 352 353 356 357 354 351 351 352 352 350 349 348 346 346 346 344 344 345 342 342 346 350 350 349 349 349 347 345 344 345 344 341 336 333 333 335 336 336 337 336 335 334
357 356 355 355 355 354 353 353 354 354 355 356 355 353 354 354 354 356 356 353 353 354 353 354 355 354 354 353 351 352 353 352 352 354 355 354 353 351 352 353 352 350 349 348 347 346 346 344 344 345 342 339 341 345 348 348 347 347 348 347 346 345 344 344 342 338 333 333 335 336 336 336 337 336
356 355 355 355 355 354 354 354 354 353 355 358 357 355 355 356 356 357 357 356 356 356 355 356 355 354 354 354 353 354 355 353 352 354 354 353 351 350 351 351 351 349 348 347 346 346 346 344 343 343 341 339 336 336 342 347 347 346 347 347 347 346 346 345 345 343 338 334 334 335 336 336 337 337
355 353 353 354 355 355 355 355 354 353 355 359 358 356 356 357 358 358 357 357 357 358 358 358 356 354 354 355 355 356 358 357 354 354 354 353 351 350 350 350 350 349 348 347 345 345 345 344 342 340 338 339 336 330 331 338 343 346 347 347 346 347 346 346 346 345 343 340 337 335 335 335 337 338
354 354 354 354 355 356 356 357 355 353 356 359 359 358 357 357 358 358 358 358 358 359 359 359 358 356 355 356 356 357 359 359 357 356 355 353 350 350 350 350 349 349 349 349 347 344 344 343 341 338 335 336 336 331 327 330 335 340 344 346 347 347 347 346 346 346 346 345 343 340 337 336 336 337
355 355 355 355 356 356 356 357 356 356 358 359 358 358 358 358 359 358 358 358 358 359 360 359 358 358 357 357 357 358 360 359 356 355 355 355 352 350 350 350 350 348 348 350 349 345 343 343 341 337 334 335 335 330 328 329 333 336 339 342 345 347 348 347 346 346 346 345 345 345 343 340 337 336
357 357 357 356 356 356 357 358 358 358 358 357 355 354 354 356 358 358 359 359 358 359 360 360 359 359 358 358 357 358 359 357 355 353 354 355 353 351 350 350 350 349 347 349 349 346 344 343 341 338 335 335 334 329 326 327 331 335 338 340 344 346 348 348 347 347 346 346 346 345 345 344 342 340
356 356 356 356 355 355 356 356 357 357 356 354 352 352 353 354 356 357 359 360 360 360 360 360 360 359 359 358 358 358 357 357 355 353 354 356 354 352 352 352 351 350 348 349 350 349 347 343 339 337 336 335 333 330 326 324 327 332 336 339 341 344 347 349 349 349 347 346 346 346 345 345 344 344
355 354 353 355 356 355 355 354 354 354 353 352 352 352 353 354 356 356 357 358 358 358 358 358 358 358 358 358 357 357 357 357 355 353 353 355 355 354 353 352 352 352 351 350 351 352 350 344 339 337 335 335 333 330 328 324 324 329 333 335 337 340 344 347 349 351 350 349 348 347 346 346 345 345
353 353 354 356 357 356 356 355 354 353 352 352 351 351 352 352 354 355 355 356 356 355 356 357 357 357 357 357 356 355 355 354 354 354 354 355 356 356 354 352 352 352 351 349 350 353 350 345 341 337 334 334 333 332 330 325 322 325 330 333 334 335 338 341 343 344 346 347 348 348 347 347 347 346
354 355 356 357 356 356 355 354 353 352 351 351 350 350 349 349 350 350 351 351 353 355 356 356 356 356 356 355 355 354 353 352 353 354 354 353 354 354 354 353 353 353 352 350 350 351 351 349 345 338 335 334 334 334 332 326 320 321 325 329 332 334 334 336 337 337 338 339 340 341 342 343 345 347
354 354 354 354 354 354 353 351 350 349 348 347 346 345 344 343 343 344 347 349 351 353 354 353 353 353 353 353 353 353 353 353 353 354 352 351 351 352 353 353 353 353 353 352 352 351 349 348 344 339 336 334 334 335 333 325 320 321 321 324 329 332 333 334 334 335 335 334 334 334 334 335 337 340
353 353 353 354 352 350 347 345 343 342 341 341 341 339 338 337 338 343 347 349 348 348 349 348 348 348 348 348 348 349 350 350 352 354 352 350 350 350 350 351 352 352 352 352 352 350 347 345 343 340 337 334 334 335 332 325 323 324 323 323 326 328 330 331 332 334 334 333 333 334 333 332 332 331
352 351 350 348 345 341 336 334 333 334 335 335 334 332 331 333 337 343 346 346 345 343 343 342 342 342 343 343 344 346 347 348 349 351 350 349 349 348 347 346 348 350 351 350 349 348 347 346 343 340 336 335 335 336 331 326 325 325 323 323 324 325 326 327 329 332 333 333 333 334 334 334 333 332
349 345 340 337 334 330 325 324 325 328 330 330 327 327 331 335 338 341 341 341 340 339 338 338 338 339 339 341 343 344 346 346 347 346 347 348 349 348 345 344 345 348 351 350 348 346 345 344 343 341 337 334 334 334 331 328 327 325 323 323 323 323 323 324 325 328 331 331 333 334 334 333 332 331
343 336 330 329 326 320 317 319 324 326 325 323 323 326 330 333 334 335 335 335 336 336 336 336 336 337 338 340 342 342 343 345 345 344 344 345 347 348 346 345 345 347 349 348 346 345 344 342 342 340 336 332 331 331 331 329 329 327 325 323 323 322 321 321 321 323 325 326 328 330 331 332 332 329
336 329 326 326 319 316 320 324 325 323 321 322 324 326 328 330 331 333 333 334 335 335 336 337 336 336 337 338 339 340 341 342 342 343 344 343 343 345 346 345 345 347 347 345 342 342 342 342 340 337 334 333 331 329 329 331 331 330 328 327 326 324 321 321 320 322 322 319 319 322 322 323 325 324
330 327 327 323 316 320 327 327 323 322 325 328 329 331 331 331 332 334 334 335 335 335 336 338 338 337 337 337 338 340 340 341 341 342 342 341 341 343 343 344 345 345 343 340 339 340 340 339 338 337 336 337 334 329 329 332 333 332 331 331 329 326 324 324 324 324 323 320 320 321 319 316 314 313
328 329 328 320 317 326 330 325 323 325 328 332 333 333 334 334 334 336 336 337 338 337 337 338 339 340 339 339 340 341 341 343 343 342 340 340 341 342 343 344 344 340 338 337 338 339 338 336 335 335 335 336 335 331 330 332 332 332 332 332 331 328 325 326 327 326 324 323 323 324 322 320 316 312
324 325 322 314 318 330 332 327 328 328 328 331 333 334 335 335 336 337 337 337 339 339 339 338 339 340 341 341 340 339 340 342 344 342 340 340 340 340 340 342 341 337 335 336 336 336 335 334 334 334 333 334 334 333 332 332 332 332 332 331 331 329 325 323 326 327 325 324 324 324 323 324 322 316
321 321 316 312 319 331 333 331 332 332 330 331 331 333 335 335 336 338 337 335 336 337 338 339 339 339 340 340 339 337 337 338 339 339 338 338 337 336 336 337 336 334 334 334 334 333 333 332 332 332 332 331 332 333 333 333 333 333 332 331 331 331 327 324 325 328 326 324 324 324 324 324 324 321
322 322 317 314 322 332 334 333 333 334 333 332 332 332 334 334 337 338 335 333 332 333 334 337 339 338 337 337 336 336 335 334 334 335 335 335 335 334 333 333 333 333 333 334 333 333 333 331 330 330 330 329 330 331 330 330 329 329 330 331 329 329 329 328 326 327 327 325 325 324 324 324 324 323
325 324 319 318 324 330 333 334 334 334 334 335 334 334 333 333 333 333 330 329 330 329 330 333 336 336 335 334 334 334 334 333 332 331 331 331 332 332 331 331 331 330 331 331 331 331 331 330 329 329 328 328 328 329 328 328 327 325 325 326 326 326 327 328 328 328 327 326 325 323 321 322 323 323
321 319 314 315 321 327 330 333 335 334 335 336 335 332 331 330 330 328 327 326 327 326 326 328 330 330 331 332 331 330 331 332 333 333 332 331 332 332 332 331 330 329 329 329 328 327 327 327 326 326 327 327 326 325 324 324 325 324 323 322 322 324 325 327 328 328 326 324 323 322 321 321 321 321
322 320 317 317 322 325 327 332 334 334 335 334 331 328 328 328 327 327 326 325 325 325 324 324 324 324 325 326 325 325 326 327 328 331 332 333 334 334 334 333 332 331 330 329 328 328 327 325 324 323 323 323 324 323 323 322 322 322 321 321 320 321 324 326 326 326 325 324 323 323 323 321 319 318
329 329 329 328 329 330 333 336 336 333 331 330 328 327 326 325 324 325 325 324 323 323 323 322 322 321 321 322 322 322 323 324 323 323 325 328 330 331 332 333 332 332 332 330 329 328 327 326 324 323 322 321 321 322 322 321 321 321 322 322 320 319 321 322 324 324 323 322 322 322 321 318 315 314
329 329 329 328 329 330 332 334 332 329 328 327 327 326 325 324 323 322 322 322 321 321 321 320 319 318 318 319 320 320 319 321 322 321 322 324 325 326 327 328 329 329 330 329 327 327 327 326 325 324 322 320 319 319 320 320 319 319 321 322 320 318 319 319 320 320 320 319 319 317 315 314 314 314
329 328 327 326 327 328 328 328 327 326 327 327 326 325 324 323 322 321 321 320 320 319 320 320 319 318 317 317 317 316 315 316 318 319 319 321 323 323 324 325 326 326 326 326 325 325 324 324 324 322 320 317 315 315 318 320 319 319 322 322 319 317 318 318 318 317 316 315 314 312 313 316 318 318
327 326 325 325 326 326 325 325 324 324 324 324 323 322 322 321 321 320 319 317 317 317 319 319 318 316 316 316 316 314 313 314 315 315 316 317 318 319 320 321 322 322 321 322 323 324 323 321 320 319 316 313 312 313 317 320 320 320 321 320 318 317 317 316 315 313 312 310 310 311 315 318 319 318
326 326 325 325 324 324 323 323 322 322 322 321 321 320 320 319 319 317 315 313 314 316 318 317 315 314 315 315 314 313 313 313 312 313 314 314 315 315 315 316 316 315 314 315 317 319 320 320 319 317 314 313 313 314 317 318 318 318 319 318 316 315 315 313 310 309 308 308 311 314 315 316 317 317
325 324 324 324 323 323 322 322 321 321 321 321 320 319 319 318 317 315 314 313 313 314 315 315 314 313 313 313 313 312 312 312 311 311 312 313 313 313 313 313 313 312 311 311 310 311 315 318 318 316 313 313 314 315 314 313 313 314 316 316 315 314 313 309 307 307 308 309 311 313 314 314 315 316
325 323 323 324 323 322 321 321 321 320 320 319 318 317 316 316 317 316 315 314 313 313 313 313 312 312 312 312 312 311 311 311 311 312 312 312 311 312 312 312 312 311 312 312 311 311 314 316 316 314 313 313 314 314 313 311 309 308 309 311 311 311 309 307 307 309 309 309 310 311 312 312 312 313
323 322 322 322 321 320 319 319 319 318 317 316 316 315 315 315 316 315 315 314 314 313 313 312 312 312 312 312 311 311 311 311 311 311 310 310 310 310 310 311 311 311 311 312 313 314 314 314 314 313 312 311 311 311 310 309 308 308 309 310 309 307 306 307 309 310 310 309 309 310 311 311 311 311
321 321 321 321 320 319 318 317 316 316 316 316 316 315 315 316 315 315 315 315 314 313 313 312 312 312 312 311 311 310 310 310 309 309 309 310 310 310 310 310 310 310 310 311 311 312 312 312 312 311 311 311 311 311 310 310 311 312 314 314 313 309 307 309 310 310 310 310 309 310 310 310 310 311
320 320 320 319 319 318 317 316 316 315 315 315 315 315 316 316 315 315 315 314 312 311 310 310 310 309 309 309 309 309 309 308 308 308 309 309 309 309 310 310 310 310 310 310 310 310 311 311 311 311 311 311 311 311 312 312 313 313 313 314 314 313 311 311 311 310 310 310 310 309 309 309 309 310
320 319 319 319 318 317 316 316 315 314 313 313 313 314 314 313 312 312 311 310 309 308 307 307 307 307 307 307 307 308 308 308 308 308 308 309 309 309 309 309 310 310 310 310 309 309 310 310 311 311 312 312 312 312 312 312 312 313 313 313 312 312 312 312 311 310 310 310 310 309 309 308 308 308
318 318 317 317 317 316 315 314 314 313 312 311 311 312 311 310 310 309 308 307 306 306 306 305 305 305 305 306 306 306 307 306 307 307 307 307 308 308 308 308 308 308 308 308 308 308 308 308 309 311 311 312 311 312 312 312 312 312 313 312 311 312 312 312 311 310 310 310 310 309 309 308 307 307
316 315 315 315 314 314 313 312 312 311 311 310 310 310 309 308 308 306 306 305 305 304 304 304 304 303 303 303 304 305 305 305 305 305 306 306 307 306 306 306 307 307 306 306 306 306 306 307 307 308 308 308 309 310 311 311 311 311 310 310 310 310 311 311 311 311 310 310 310 310 309 309 308 307
314 313 313 313 313 312 311 311 310 310 310 309 309 308 307 306 306 305 304 303 302 302 301 301 301 301 301 300 301 303 304 304 304 304 304 305 305 305 305 305 306 306 305 305 305 305 305 305 306 306 306 306 307 308 308 309 309 308 307 307 307 308 308 309 310 310 311 311 310 310 310 309 308 307
Wind_Speed
7 8 9 10 7 6 6 7 8 8 8 10 9 5 3 2 2 1 2 3 4 3 5 4 5 9 10 9 10 9 7 6 8 9 10 12 12 11 10 10 8 8 10 13 14 14 12 12 12 11 10 8 5 4 6 7 6 5 5 6 7 7 7 8 8 8 9 10 11 12 12 12 12 13
7 8 9 10 7 5 6 8 9 11 9 6 5 4 3 3 3 4 3 3 5 5 7 7 7 10 12 12 11 9 8 7 7 7 9 13 12 11 11 10 7 7 9 12 14 14 13 11 12 11 10 7 5 3 5 6 6 5 5 6 6 7 7 8 8 8 8 8 10 11 11 10 10 11
7 7 8 8 7 6 7 7 8 11 11 7 6 6 4 4 4 5 5 2 4 6 8 9 9 10 12 14 13 12 10 8 7 7 10 13 10 10 11 8 5 5 7 10 12 14 13 12 12 12 11 8 4 4 4 5 6 5 5 5 6 6 7 7 7 8 7 7 8 9 10 10 10 10
7 7 6 5 5 5 6 6 7 10 9 5 4 4 5 5 5 6 6 4 6 10 9 8 9 10 13 15 14 14 11 8 8 8 10 13 11 9 9 6 4 4 6 8 10 12 14 13 12 12 12 9 4 3 5 5 6 5 5 5 5 5 6 7 7 7 8 7 7 7 9 10 10 10
7 7 7 6 6 6 7 6 7 8 8 6 4 4 4 4 5 7 7 6 7 11 10 8 10 11 13 14 13 13 12 10 9 8 9 13 9 8 7 4 4 3 5 7 8 10 12 12 12 12 12 11 7 2 5 5 5 6 5 5 5 4 4 5 6 7 8 8 7 7 8 8 9 10
8 8 8 8 7 7 7 5 5 7 7 6 6 5 4 4 5 7 8 7 7 10 11 10 10 11 12 12 12 12 11 10 10 8 9 11 8 7 7 5 3 2 4 5 6 8 10 11 11 11 11 11 9 4 3 4 4 5 5 5 5 5 4 4 5 6 7 8 8 8 8 9 9 9
8 8 8 7 7 7 7 5 4 5 7 6 5 4 4 4 5 6 7 7 7 9 11 11 11 11 11 12 11 10 10 10 9 8 9 10 10 8 6 6 4 2 3 4 4 5 8 9 9 9 10 11 10 7 2 4 4 4 5 5 5 5 4 3 3 5 6 7 8 8 8 9 10 10
8 8 7 6 6 7 8 7 6 5 6 6 5 4 4 4 4 6 7 6 7 8 10 12 13 12 12 13 11 10 9 8 6 6 7 9 11 8 3 6 5 3 4 5 4 3 5 7 7 7 9 10 9 8 5 2 4 4 3 4 5 4 4 3 2 3 5 6 7 8 8 9 10 11
8 8 8 7 7 8 8 7 7 6 5 5 5 5 6 5 4 5 7 7 8 9 11 13 14 14 14 14 12 9 8 7 7 7 7 8 9 7 2 4 5 4 5 6 5 4 3 4 5 5 7 8 8 8 7 4 2 2 3 3 4 4 4 4 3 3 4 5 7 8 8 8 10 11
8 7 8 8 7 7 7 7 8 7 5 4 5 6 7 7 5 5 6 8 8 10 11 12 14 16 15 14 13 10 7 9 9 9 9 8 8 7 4 4 5 5 5 5 5 5 4 3 2 3 4 6 7 7 6 5 4 2 1 2 4 4 4 5 5 5 5 5 7 8 9 9 9 10
7 6 6 6 6 8 8 6 7 7 5 4 6 7 7 7 7 7 7 8 9 10 12 13 15 17 16 15 14 12 9 10 12 12 11 11 10 8 7 6 6 6 6 6 6 6 6 4 2 1 3 4 6 6 5 5 5 4 3 2 2 4 5 6 6 7 7 7 7 8 9 10 10 10
4 5 6 6 7 8 7 6 7 7 7 8 8 7 6 6 7 8 9 9 10 12 13 15 16 17 17 17 16 14 12 13 13 12 11 12 12 11 10 9 7 6 6 7 8 9 10 8 5 3 2 3 5 4 4 4 5 5 4 3 2 2 4 5 7 8 8 8 9 8 8 9 10 11
4 5 6 5 6 6 4 4 6 6 7 9 9 8 8 8 9 10 11 11 13 13 14 16 17 17 18 18 17 16 15 14 13 13 13 14 14 13 13 12 8 5 5 7 9 11 12 12 8 5 4 2 3 3 3 3 4 5 6 5 4 3 2 3 5 7 8 8 8 8 8 9 10 10
3 4 4 3 3 2 2 3 4 6 6 7 7 8 9 9 10 11 11 12 13 13 14 16 17 16 17 18 17 17 17 15 14 14 14 15 15 13 13 12 7 3 3 5 8 11 14 14 10 7 5 3 2 2 2 3 3 4 5 6 6 5 4 3 3 4 6 7 7 8 8 9 9 9
1 3 3 2 2 3 4 4 5 6 7 7 8 9 9 9 9 10 11 13 13 14 16 17 16 16 17 19 18 17 16 16 17 16 15 15 15 13 11 9 6 4 3 5 7 8 12 15 13 10 7 5 3 2 2 2 2 3 4 6 7 7 6 5 5 4 5 6 6 7 7 8 8 9
1 2 2 2 3 5 6 7 8 9 9 10 11 12 12 11 9 9 11 13 15 16 17 18 17 17 18 19 18 16 15 15 16 16 14 14 14 13 12 10 9 7 6 7 8 6 8 13 16 14 10 7 4 2 2 2 2 3 3 5 6 8 8 8 8 7 7 6 6 5 5 6 6 7
1 0 2 1 4 6 8 9 11 11 12 13 14 15 16 15 14 13 12 13 14 14 15 16 17 17 17 17 18 18 17 17 18 17 15 13 14 14 15 15 13 12 10 10 10 7 5 10 17 17 12 8 5 3 2 3 3 2 3 3 4 6 7 8 9 9 10 9 9 9 8 7 6 5
2 2 1 3 5 7 8 9 11 12 13 15 16 17 17 16 15 13 11 10 10 9 9 10 13 13 14 15 17 18 18 19 20 19 17 15 14 13 14 16 16 13 11 11 10 7 4 7 15 18 13 10 8 5 4 5 5 3 2 3 4 4 5 6 7 8 9 10 10 11 11 12 11 11
1 2 2 3 4 6 8 10 12 14 15 15 16 16 15 14 12 9 7 7 7 7 8 9 12 14 14 15 16 17 16 16 18 19 18 16 15 14 14 16 16 13 12 11 10 6 4 7 13 16 15 13 10 7 6 7 6 3 2 3 4 4 4 4 6 7 8 9 10 10 11 12 13 13
3 3 3 3 4 7 10 11 13 13 14 14 14 14 14 12 9 6 6 7 9 13 14 15 16 18 18 18 17 17 17 17 17 18 18 17 16 15 14 14 15 13 12 12 11 8 5 7 11 14 15 15 12 10 9 8 6 4 2 2 3 4 4 4 5 5 6 7 8 9 9 9 10 10
6 5 5 5 6 9 11 12 12 12 12 13 13 13 12 10 8 7 9 11 13 14 14 14 15 15 15 15 14 14 15 15 15 14 15 15 13 11 9 10 12 12 11 11 10 8 7 7 9 11 14 15 14 12 10 8 6 5 4 3 2 3 3 3 4 4 5 5 5 5 6 6 7 7
6 6 6 6 8 10 10 10 10 10 10 11 11 11 11 11 11 12 13 13 13 13 13 13 14 14 12 13 13 13 12 11 11 12 12 12 11 9 8 8 9 9 9 7 6 5 6 7 7 8 11 12 13 13 11 9 8 7 6 5 4 3 3 4 4 4 3 2 2 2 1 1 2 3
6 6 5 7 9 10 9 9 8 9 10 10 11 11 12 12 13 14 16 16 17 18 17 18 18 17 15 14 14 13 13 12 11 11 11 10 10 11 10 9 8 6 4 4 4 4 5 7 7 8 9 6 7 12 13 11 9 9 8 7 5 4 5 5 6 5 4 3 2 1 1 2 3 3
7 6 5 8 9 9 8 8 9 10 11 13 14 15 15 14 14 16 17 18 18 19 19 19 20 18 17 15 14 14 14 12 11 11 11 10 10 11 11 11 10 4 2 2 3 5 3 5 6 7 8 5 4 10 15 13 10 10 9 8 6 5 6 6 6 5 5 5 5 4 4 3 1 4
7 5 5 8 8 7 7 8 9 11 13 15 16 17 15 14 14 16 18 20 19 17 18 19 19 19 18 17 16 16 15 12 8 7 8 8 8 8 9 10 8 2 2 1 3 3 2 4 5 5 4 3 3 7 12 14 12 11 10 9 7 6 5 6 6 5 5 5 5 4 5 4 4 1
5 4 5 7 7 5 6 8 8 10 12 13 15 15 15 14 14 15 19 21 20 18 18 20 21 21 21 20 19 19 18 14 10 7 5 3 3 3 4 5 2 3 3 2 2 2 3 4 5 6 7 6 4 2 6 11 14 14 12 10 9 7 5 6 8 8 6 5 4 3 3 3 4 4
4 4 5 6 3 2 4 5 6 8 9 9 10 12 12 13 13 14 18 21 21 21 22 22 23 23 22 21 19 19 18 15 12 9 7 6 6 7 6 5 6 7 4 1 1 2 1 2 3 2 3 4 4 2 2 2 6 11 13 13 12 11 10 9 9 10 10 8 6 4 2 1 1 3
2 3 4 4 1 1 3 4 5 6 6 7 8 9 11 14 14 14 18 21 23 25 25 23 21 22 22 21 20 18 15 14 12 10 9 8 7 7 8 8 8 8 7 6 5 4 5 6 6 3 1 1 0 1 2 4 6 4 4 8 8 8 10 12 12 12 12 10 8 6 4 3 2 1
3 4 5 4 2 2 1 2 3 4 6 7 8 10 14 17 18 19 21 22 24 26 25 23 21 21 21 21 20 17 14 13 12 11 10 9 8 7 7 7 7 6 6 7 8 8 8 7 6 4 1 2 4 4 3 3 5 8 6 1 1 4 2 7 12 13 13 12 9 7 6 4 3 2
5 5 5 4 3 3 2 1 2 3 5 8 10 13 17 19 20 22 24 25 25 25 24 23 23 22 20 20 20 20 18 16 15 12 10 10 11 10 10 9 8 7 6 5 6 7 6 5 5 4 4 3 3 4 4 4 4 6 7 6 4 5 5 5 10 12 12 12 11 9 7 4 3 4
7 7 5 3 3 5 5 4 4 4 5 9 14 17 17 18 18 19 22 23 24 23 23 23 23 22 21 21 21 22 21 20 19 16 14 13 14 14 13 13 11 8 7 6 7 7 7 6 6 7 8 7 6 6 5 5 5 5 5 7 5 2 3 6 9 10 10 10 8 7 5 3 3 6
12 12 11 8 6 3 2 2 2 6 11 15 17 17 18 19 19 18 19 20 21 22 21 22 23 24 24 24 23 23 22 20 20 20 18 16 15 14 13 14 13 11 8 7 7 8 8 7 7 9 11 12 11 11 10 9 8 5 3 3 3 1 2 3 5 6 4 4 3 1 0 2 4 6
16 17 18 18 16 14 13 13 14 17 18 17 17 18 20 21 21 20 20 21 21 21 21 21 22 24 24 24 23 23 23 20 19 21 20 16 15 15 15 15 14 12 9 8 7 8 9 8 8 11 13 12 12 13 13 12 10 7 4 2 1 1 2 2 2 2 2 2 3 5 5 4 5 5
19 20 22 24 23 22 22 21 20 20 19 18 19 21 22 23 22 22 22 21 20 20 20 20 21 23 23 23 22 23 24 22 20 21 21 18 16 16 16 16 15 14 14 12 10 10 11 12 13 14 15 14 12 11 12 13 12 9 6 3 1 2 2 1 1 2 3 4 5 5 4 3 4 5
21 21 23 24 24 24 24 22 21 21 21 21 21 21 21 22 22 21 21 20 19 19 18 18 20 21 20 20 21 21 22 23 21 21 23 22 19 17 17 17 16 17 17 16 13 12 12 13 13 13 14 15 13 10 9 11 10 8 5 2 2 1 1 1 3 5 5 5 4 3 3 4 6 7
20 21 22 22 22 22 22 21 20 20 20 19 19 20 20 20 20 20 20 19 18 17 16 17 20 20 18 18 20 20 21 22 22 22 23 23 22 21 19 19 19 19 20 19 16 14 13 12 11 10 10 10 8 6 6 8 7 5 4 3 2 2 3 5 7 7 6 5 4 3 4 4 4 3
17 19 20 19 19 19 19 18 18 18 18 17 17 18 18 17 16 17 18 19 18 16 14 16 18 19 18 18 19 19 19 19 20 22 23 23 23 23 21 21 22 23 23 21 19 16 13 10 8 7 7 5 3 3 5 9 9 7 5 4 4 4 7 9 8 6 4 4 3 2 3 4 3 2
15 16 17 17 17 18 18 17 16 16 16 16 16 16 16 15 14 15 17 18 17 15 14 15 17 18 17 17 17 19 18 18 19 20 21 22 22 22 21 21 21 22 22 21 20 17 13 7 5 6 7 5 3 3 6 12 16 14 10 9 10 11 11 8 4 2 3 4 3 2 2 3 3 1
13 13 14 15 16 17 17 17 17 16 16 15 15 15 15 14 14 15 15 16 16 15 14 14 15 16 15 14 15 16 17 17 18 19 19 19 19 18 18 19 20 20 20 20 18 16 12 9 7 9 9 7 6 7 9 14 18 17 12 9 10 11 9 4 2 3 3 3 3 4 3 2 3 2
9 11 12 13 14 14 15 16 16 15 15 13 12 13 14 13 14 14 13 13 13 13 12 12 13 14 13 13 13 14 15 16 16 17 17 17 17 17 17 18 18 17 17 16 15 13 12 11 12 12 11 9 9 11 12 12 14 14 12 8 5 5 5 5 5 3 2 3 4 5 5 4 3 2
10 13 13 12 12 13 13 13 13 12 11 11 11 12 12 12 12 12 11 11 12 12 12 12 13 14 14 13 13 14 15 15 16 17 17 17 17 19 18 18 18 17 16 16 16 15 14 14 14 13 10 9 10 11 11 10 12 14 14 10 4 2 6 7 5 4 3 2 2 3 2 4 4 5
12 14 13 12 13 13 13 12 11 10 11 12 12 12 12 12 12 13 13 13 13 13 13 14 14 14 14 14 14 14 15 16 17 18 18 17 17 18 19 18 18 18 17 16 16 16 15 15 14 13 11 10 11 10 10 11 14 18 16 9 4 1 3 6 7 6 5 3 2 2 2 1 3 3
12 13 13 13 14 14 12 11 11 11 12 13 13 11 10 10 12 12 13 13 13 13 13 13 13 14 14 13 13 13 14 16 18 19 18 18 17 17 18 18 17 17 17 16 16 16 16 16 14 11 10 11 11 10 12 15 18 21 19 11 4 3 5 7 9 9 6 4 4 4 4 4 2 1
16 16 16 15 15 14 13 12 13 12 11 11 11 10 10 10 12 12 12 13 13 13 13 13 14 15 15 14 13 12 12 15 17 16 16 17 17 16 17 17 16 17 19 19 18 18 17 16 16 14 13 14 14 13 13 14 15 15 14 10 7 5 4 5 8 10 10 8 6 6 6 5 4 2
18 17 16 15 14 13 13 13 13 12 10 9 10 10 10 10 11 11 12 12 13 13 14 15 16 16 16 16 14 11 11 14 16 14 14 16 17 16 17 17 16 17 19 19 19 18 18 16 16 16 16 17 18 17 13 11 12 14 14 14 14 12 10 7 3 5 10 10 7 5 6 6 4 3
Wind_Direction
284 292 297 307 305 288 303 322 325 319 297 278 266 250 248 215 193 226 283 280 258 294 335 325 310 316 320 328 328 329 320 304 323 336 334 324 307 293 298 313 330 341 358 17 17 11 11 16 20 20 23 36 61 97 98 91 84 80 72 70 77 89 106 112 106 98 93 94 93 91 91 91 94 99
281 284 292 305 314 318 331 336 338 347 349 328 310 304 271 232 213 209 213 266 262 278 317 327 324 315 318 327 327 328 326 319 331 337 338 335 312 288 298 312 320 336 2 21 22 19 18 18 23 25 23 38 71 108 108 98 93 90 84 78 79 90 106 117 119 113 103 99 99 99 97 93 95 104
295 301 307 312 323 332 328 329 340 356 8 4 345 333 289 247 253 235 209 224 270 288 309 318 315 309 316 325 325 325 324 321 325 324 332 337 318 296 309 313 304 329 4 22 23 23 22 19 25 28 25 31 71 128 133 112 104 101 96 90 86 91 106 119 128 128 119 110 107 105 104 103 104 109
294 301 316 327 330 324 313 317 334 336 334 326 318 319 297 272 261 246 222 216 265 289 300 303 297 299 313 322 324 325 326 328 326 321 340 346 326 308 319 310 286 322 9 20 23 25 23 20 24 30 29 26 43 144 161 135 115 114 109 104 100 95 104 119 132 140 138 129 121 116 113 113 116 118
281 284 293 306 309 312 312 318 332 329 324 321 312 308 305 287 261 253 246 233 262 290 301 299 294 302 317 325 329 328 323 326 325 318 347 357 338 306 313 297 268 309 16 18 18 25 25 22 21 27 31 29 30 110 177 159 126 125 122 113 116 108 105 120 134 145 151 150 143 134 129 127 126 129
276 284 291 301 301 303 313 328 344 340 335 327 313 305 297 287 272 266 266 256 261 289 302 305 303 312 324 327 331 333 325 326 330 328 344 358 357 325 305 281 260 305 13 13 9 20 25 22 20 23 29 31 33 46 181 180 140 132 134 124 127 125 112 122 141 151 156 162 162 155 148 147 144 142
279 290 294 301 303 305 315 329 337 338 338 336 329 314 296 289 279 266 266 264 263 282 297 302 305 315 324 325 327 329 323 323 332 338 334 339 357 356 304 266 270 309 351 353 351 10 20 21 20 20 24 31 37 42 84 182 168 147 144 139 140 145 136 127 143 163 166 169 173 173 167 163 162 160
283 292 297 299 303 308 313 317 320 329 340 336 328 315 296 284 278 264 256 266 275 279 286 296 306 315 320 321 325 326 319 316 318 327 325 323 342 1 311 258 275 306 327 326 321 341 7 16 19 18 21 30 38 42 53 125 179 179 167 155 153 162 166 154 137 170 182 183 182 184 182 177 176 175
287 295 304 304 305 311 313 315 320 332 344 328 315 315 298 279 277 262 252 270 284 278 280 293 306 315 317 318 325 330 321 319 318 315 318 318 326 342 324 251 268 294 310 311 306 304 330 3 14 18 21 28 37 41 48 66 116 176 194 185 176 178 184 182 170 176 192 199 197 195 193 189 187 187
297 305 312 310 307 311 312 319 327 333 340 315 305 319 305 278 266 257 258 277 284 274 278 289 297 307 313 314 319 324 313 311 314 309 309 315 322 329 318 266 261 272 278 292 298 287 285 319 356 25 29 30 36 39 45 59 74 100 145 186 195 197 201 196 187 186 188 194 200 204 205 203 198 196
297 302 313 315 307 299 293 303 326 332 325 301 303 320 314 279 258 255 262 274 276 272 277 283 289 298 305 303 305 309 301 295 298 296 298 307 318 324 318 292 265 255 253 260 262 254 255 261 244 103 51 40 38 37 45 60 68 81 97 123 175 199 209 208 202 198 192 189 194 201 206 209 208 205
298 292 298 306 307 303 294 293 313 316 297 285 287 294 295 278 267 269 271 273 274 274 275 279 285 291 294 294 294 294 288 284 289 293 293 300 311 319 318 309 285 255 248 249 242 240 241 238 218 177 120 58 36 35 49 60 66 71 77 88 107 162 198 209 212 210 204 199 198 198 201 206 209 210
311 306 302 308 313 313 306 289 292 292 284 285 288 288 285 281 280 281 281 280 281 278 273 277 283 285 285 288 289 286 283 283 291 299 296 296 307 314 315 317 304 261 237 230 233 242 241 230 213 190 161 92 40 41 62 69 71 68 68 73 78 91 135 186 207 214 214 210 206 205 207 208 210 213
308 313 319 336 333 302 277 274 279 280 283 293 304 311 309 303 299 295 290 286 287 285 280 280 284 282 279 283 286 284 283 283 287 294 293 294 303 310 313 320 317 276 231 224 232 245 243 227 204 186 182 161 110 84 77 78 80 75 70 68 70 78 89 110 149 183 202 209 213 217 219 217 217 219
292 312 324 321 289 277 285 295 295 293 298 305 313 321 324 321 318 313 302 292 290 292 290 287 287 285 283 288 292 290 287 286 285 288 287 287 294 300 303 305 300 284 276 266 259 250 235 221 202 187 189 186 159 119 78 71 84 92 81 67 66 73 83 100 116 133 160 183 202 217 225 227 227 226
277 343 12 312 286 295 300 303 306 307 308 311 315 320 322 322 319 318 314 306 301 299 293 287 288 289 289 293 296 295 295 295 294 292 286 281 285 288 285 279 275 278 288 288 281 256 213 211 208 197 189 186 172 138 93 81 96 120 108 82 71 69 76 92 105 112 123 139 154 172 194 210 220 228
251 107 62 335 302 304 304 307 313 316 317 319 321 323 323 322 317 313 314 312 308 303 294 289 291 293 293 296 296 295 295 296 295 291 284 280 282 283 281 278 280 285 289 284 274 257 221 218 214 202 192 191 188 162 120 108 103 111 134 123 98 80 76 82 93 102 106 108 113 119 125 136 150 164
251 245 280 297 304 313 320 327 329 327 328 327 326 327 327 327 327 325 318 310 305 303 298 297 299 297 296 297 297 296 296 295 292 286 280 280 283 283 280 276 274 277 279 273 262 247 224 212 208 201 195 195 192 181 159 144 126 111 136 149 138 120 98 88 91 100 105 104 103 105 107 108 111 116
293 295 307 308 326 342 345 343 336 331 330 329 330 331 331 335 345 345 329 318 317 313 308 305 302 300 299 300 301 301 300 298 291 284 279 279 282 284 282 272 266 265 265 262 253 234 189 186 200 205 204 200 197 195 178 159 144 135 144 159 155 144 127 112 104 103 109 112 109 106 106 104 103 104
89 62 48 42 14 358 349 341 336 333 333 333 334 334 334 343 356 343 312 312 317 315 312 310 307 304 302 302 303 304 301 295 291 290 291 290 285 282 280 279 276 270 261 253 249 238 207 190 196 202 206 206 204 202 191 171 151 144 156 173 169 154 140 130 121 114 115 118 117 114 111 107 102 100
98 80 59 41 11 352 345 342 339 336 337 337 338 339 342 351 354 331 314 313 314 317 322 327 325 318 312 311 312 313 308 296 288 292 296 296 291 277 266 273 279 272 259 251 247 238 218 204 198 199 207 212 210 204 196 179 161 149 147 155 159 158 160 150 134 129 126 122 125 124 118 114 105 100
98 77 50 20 3 354 350 349 349 350 351 350 352 354 356 0 360 354 351 351 355 3 7 5 0 351 343 337 331 330 328 314 300 297 296 296 294 277 254 254 266 267 261 251 240 222 199 195 199 192 189 201 212 208 196 182 174 163 150 148 143 131 141 149 140 131 126 132 155 156 146 154 116 95
83 66 36 7 2 1 1 7 13 19 21 22 27 27 23 23 25 25 21 17 15 16 13 11 8 4 1 357 348 341 338 333 322 310 302 301 294 276 261 257 262 266 254 226 235 243 201 182 188 184 171 179 213 210 199 190 184 175 161 157 158 147 138 140 134 119 103 100 118 94 344 276 256 260
73 54 19 2 3 5 16 34 45 52 55 57 56 51 46 43 39 32 25 19 15 11 8 8 6 3 5 6 359 350 340 332 325 316 307 305 298 283 272 268 267 263 182 187 254 274 238 169 163 177 183 186 194 197 201 203 196 186 178 171 170 167 160 156 148 130 115 110 99 60 27 13 270 241
79 52 10 356 359 10 37 56 65 67 68 68 64 57 52 46 37 29 22 18 15 12 10 12 11 10 15 20 19 14 5 352 346 338 324 309 297 291 283 274 265 223 140 218 273 266 179 119 95 102 135 157 158 184 203 211 208 199 192 190 193 195 193 195 192 167 140 132 112 71 44 36 40 152
77 43 2 347 349 22 57 64 65 65 67 69 65 59 52 43 35 31 26 24 26 27 24 25 24 23 27 32 35 37 34 31 38 44 33 13 354 350 325 287 235 122 125 244 264 238 142 111 83 76 87 82 64 123 194 218 226 221 211 204 204 205 212 218 216 208 187 162 142 99 69 43 36 57
49 17 353 343 345 49 63 55 56 59 60 61 59 55 47 37 33 34 33 32 34 34 30 28 28 29 32 34 36 41 44 47 54 59 59 62 65 64 68 86 102 97 92 111 224 254 205 134 133 120 91 55 23 34 139 197 229 223 220 223 225 226 227 227 221 213 201 184 174 162 131 112 47 53
16 341 334 332 316 123 75 56 51 46 42 43 47 46 39 33 35 42 41 36 35 33 28 26 29 32 35 36 36 39 43 46 48 50 52 57 62 70 75 76 76 73 67 67 77 92 104 105 102 105 166 275 270 168 130 79 70 93 189 216 227 240 244 240 231 215 201 195 190 176 155 152 177 184
301 304 307 304 268 193 108 49 38 40 35 29 33 43 48 49 52 51 45 40 39 35 28 26 29 32 35 35 35 35 38 42 45 46 47 46 42 35 30 26 23 28 35 41 53 68 79 79 71 67 90 146 129 112 93 71 52 44 44 90 87 31 333 224 214 206 199 192 183 168 152 145 156 190
323 326 319 298 259 232 236 348 42 36 24 26 45 60 63 61 59 53 46 43 41 36 31 31 33 33 34 34 31 30 31 31 32 32 30 25 18 9 2 1 359 359 6 15 23 36 48 52 45 39 44 67 73 56 43 35 19 10 4 348 345 22 55 138 172 182 183 178 174 174 174 173 192 230
14 12 2 332 285 263 259 265 285 319 7 51 69 70 63 57 54 52 50 47 42 37 34 34 34 32 31 30 28 26 27 26 23 22 19 13 8 2 357 355 353 349 353 1 360 1 8 16 20 21 18 12 4 358 357 353 346 344 340 332 327 4 90 122 147 160 168 171 175 180 179 186 255 258
31 28 28 30 24 359 323 312 0 57 75 80 76 66 56 51 51 51 49 46 42 38 37 36 33 30 26 24 22 22 23 21 17 15 13 10 7 3 359 358 354 347 344 355 0 355 351 353 8 17 12 2 350 339 329 322 325 332 336 327 321 237 181 178 162 152 154 172 187 187 41 343 312 290
32 37 45 52 58 66 74 81 83 84 85 82 73 63 57 54 53 52 51 48 43 38 36 32 28 23 20 18 17 17 17 16 12 9 8 6 3 0 357 358 0 359 357 358 357 355 352 347 345 349 350 348 342 333 323 313 309 313 321 315 288 182 196 226 222 218 263 296 309 328 338 329 317 314
43 53 60 63 67 73 78 81 81 80 80 80 74 66 60 59 58 54 48 44 38 32 28 21 17 16 16 13 10 8 8 9 9 10 9 6 2 359 354 352 356 1 3 357 344 340 345 343 337 335 337 342 343 330 314 306 302 305 312 304 259 174 167 211 300 306 320 331 328 327 343 4 21 28
59 66 67 66 68 72 75 75 72 71 72 74 71 66 61 58 53 46 39 32 28 28 26 19 15 17 18 12 6 4 4 4 6 13 15 13 11 9 7 7 6 6 7 2 350 341 343 345 345 350 354 356 353 338 317 309 305 301 296 261 205 177 191 292 332 332 333 339 336 343 30 49 54 53
69 73 70 69 70 70 71 71 68 66 65 65 64 62 58 49 40 38 36 32 32 36 33 22 18 20 18 12 8 7 6 4 6 11 14 14 13 10 8 9 8 3 360 357 351 346 346 345 348 1 9 6 356 342 337 339 335 321 302 273 249 270 305 325 333 328 327 338 350 19 38 36 39 57
76 77 74 73 71 70 71 71 70 70 69 67 61 55 49 42 36 35 34 31 34 37 28 16 15 16 13 8 6 6 6 5 7 10 12 13 14 12 8 4 0 356 351 347 344 342 339 331 331 354 14 18 3 330 330 335 335 331 320 307 299 304 317 324 327 329 341 357 351 349 10 14 25 105
79 78 74 76 77 77 78 77 78 79 76 69 61 52 45 41 36 31 27 26 26 26 22 17 17 15 11 8 9 10 10 10 13 14 12 9 9 9 6 360 356 353 349 347 348 351 351 341 341 5 15 14 354 321 316 318 318 316 311 300 292 294 304 313 325 29 38 18 347 328 339 344 348 30
72 73 75 81 83 82 80 80 81 79 71 62 54 45 40 38 34 29 25 22 20 19 20 19 14 10 9 10 12 14 16 18 18 13 7 2 0 0 356 351 348 347 346 348 356 5 11 15 13 5 359 348 328 315 307 306 311 319 327 314 289 282 283 268 183 121 62 42 52 60 53 22 354 347
68 79 82 82 80 77 75 75 75 71 65 57 47 38 36 35 32 26 20 18 20 24 25 22 19 19 21 20 18 18 19 17 12 6 0 358 356 353 346 339 338 342 344 345 350 355 356 355 351 346 346 344 334 327 321 311 313 330 349 350 302 253 217 190 180 160 118 86 75 71 59 39 37 102
70 86 86 81 76 72 70 72 72 68 62 57 53 52 54 53 49 47 46 45 45 47 45 41 38 37 33 29 25 21 16 9 3 359 356 355 353 353 347 337 331 330 327 325 331 337 337 333 327 325 332 338 331 326 327 321 316 326 342 354 347 236 195 187 187 177 152 127 92 89 68 24 34 100
78 87 87 87 85 82 81 81 78 70 64 62 66 73 78 75 73 73 72 66 58 54 49 44 39 34 29 27 25 20 12 5 0 357 355 353 352 355 354 348 342 337 330 326 331 336 339 337 326 309 303 312 316 312 309 308 307 310 318 337 9 333 229 209 201 192 181 184 204 174 146 68 37 87
87 90 90 91 89 86 85 82 75 68 65 65 69 76 77 71 66 63 59 53 47 41 35 30 26 22 19 17 15 12 9 7 4 1 2 2 1 3 5 4 2 1 359 357 356 356 359 6 4 343 317 316 318 306 295 296 300 303 304 309 317 297 267 234 212 203 200 217 238 223 191 172 155 150
81 82 83 85 84 81 77 69 64 62 59 57 59 61 59 56 51 44 38 34 31 26 19 12 8 5 4 3 360 358 2 6 4 3 7 9 8 10 12 9 8 9 9 8 8 7 5 9 14 13 4 355 350 339 324 319 323 330 340 358 17 10 329 275 240 228 231 243 251 245 231 214 199 209
74 76 77 77 77 77 72 67 65 64 58 53 52 49 47 45 41 34 27 24 22 18 13 7 0 356 354 354 351 350 359 4 1 359 6 10 9 9 9 6 3 5 7 6 7 6 2 360 2 7 9 6 360 356 357 4 10 13 16 18 18 18 19 13 339 260 250 253 257 256 245 231 222 241